{"data":{"norad_id":67162,"epoch":"2026-05-23T14:09:46.298880Z","epoch_age_seconds":193978,"freshness":"STALE","line1":"1 67162U 25302C   26143.59011920  .00000019  00000+0  00000+0 0  9995","line2":"2 67162  54.3227 102.8298 0003475 303.3884  57.4130  1.70474193  2766","mean_motion":1.70474193,"eccentricity":0.0003475,"inclination_deg":54.3227,"raan_deg":102.8298,"arg_perigee_deg":303.3884,"mean_anomaly_deg":57.413,"bstar":0,"rev_number":276,"period_min":844.70263484397,"perigee_km":23211.874613042,"apogee_km":23232.446819955,"semimajor_km":29600.297716499,"source":"CELESTRAK","updated_at":"2026-05-25T13:38:24.063116Z"}}